KUIPER-00039

导读

KUIPER-00039是美国亚马逊柯伊伯(Project Kuiper)星座的低轨宽带卫星,于2025年6月23日由联合发射联盟阿特拉斯V火箭,从佛罗里达州卡纳维拉尔角发射升空,是该星座第二批组网卫星之一。它运行在近地轨道,旨在为全球未覆盖和欠覆盖区域提供高速、低延迟的宽带互联网接入服务,助力亚马逊完成由超3200颗卫星组成的全球低轨星座部署。

Basic Information
目录编号:
64500
目录名称:
KUIPER-00039
国际标识:
2025-134A
轨道中心:
EARTH
卫星名称:
KUIPER-00039
卫星全名:
KUIPER-00039
卫星状态:
在轨 (已飞行446 天)
发射日期:
2025-06-23 UTC
国别 :
美国 (US)
星等 :
--
This satellite is enrolled in the Space Conjunction Data Service (SCDS) and the current flight risk assessment level is: No High Risk
Orbit Information
数据来源 国际轨道数据 AOE轨道数据
星历时间 2026-09-12T03:26:27+0800
10小时前
查看轨道信息
2026-09-10T23:00:00+0800
1天前
查看轨道信息
半长轴 7007.683km 7007.655km
偏心率 0.0001024 0.0000951
轨道倾角 51.900° 51.900°
近地点辐角 117.148° 85.756°
升交点赤经 130.091° 135.338°
平近点角 242.959° 76.994°
近地点 628.828km 628.851km
远地点 630.264km 630.185km
周期 97.302分钟 97.301分钟
每日圈数 14.7993 14.799386
Detailed Information
使用方式:
暂无
2D Orbit Map
3D Orbit Map
Orbit Altitude Analysis Chart
Orbit Inclination Analysis Chart
Orbit Comprehensive Analysis Chart
View Comprehensive Chart
Conjunction Data List
Event ID Objects TCA Miss Dist (km) Collision Risk Probability Collision Risk Index (CRI) Action
CDM_260914-001003-916106-450021
2026-09-14T
00:10:47+0000
2.194 km
极远距离
2.263301E-6 低风险 0.42
Miss Distance Evolution Trend with All Objects
Collision Probability Evolution Trend with All Objects